Location: Unspecified
(50.7693°N, 0.0000°E)
Time: 11:04:02
(UTC+00:00)

Transit 4A - Pass Details

Date: 03 July 2019
Orbit: 866 x 978 km, 66.8° (Epoch: 16 October)

Event Time Altitude Azimuth Distance (km) Brightness Sun altitude
Rises 12:36:06 0° 320° (NW) 3,689 10.9 61.5°
Reaches altitude 10° 12:38:53 10° 329° (NNW) 2,736 10.3 61.4°
Maximum altitude 12:44:52 39° 37° (NE) 1,415 9.1 61.1°
Drops below altitude 10° 12:50:43 10° 106° (ESE) 2,682 10.4 60.8°
Sets 12:53:25 0° 114° (ESE) 3,609 11.0 60.6°
